| time (UTC) | temp C | wind direction | speed KPH | gust KPH | rain 1hr cm | rain 24hr cm | rain mn cm | humidity % | barometer mb |
| 20260505195356 | 7 | 351 | 6.4 | 14.5 | 0.00 | 0.00 | 0.00 | 78 | 1015.0 |
| 20260505194855 | 7 | 353 | 6.4 | 20.9 | 0.00 | 0.00 | 0.00 | 78 | 1015.0 |
| 20260505194355 | 7 | 12 | 6.4 | 12.9 | 0.00 | 0.00 | 0.00 | 78 | 1014.9 |
| 20260505193355 | 7 | 8 | 4.8 | 12.9 | 0.00 | 0.00 | 0.00 | 77 | 1014.9 |
| 20260505192355 | 7 | 27 | 8.0 | 24.1 | 0.00 | 0.00 | 0.00 | 78 | 1014.7 |
| 20260505191856 | 7 | 6 | 6.4 | 19.3 | 0.00 | 0.00 | 0.00 | 77 | 1014.7 |
| 20260505191355 | 7 | 15 | 8.0 | 19.3 | 0.00 | 0.00 | 0.00 | 78 | 1014.6 |
| 20260505190855 | 7 | 12 | 8.0 | 16.1 | 0.00 | 0.00 | 0.00 | 78 | 1014.7 |
| 20260505190355 | 7 | 359 | 8.0 | 19.3 | 0.00 | 0.00 | 0.00 | 78 | 1014.7 |
| 20260505185855 | 7 | 8 | 6.4 | 19.3 | 0.00 | 0.00 | 0.00 | 77 | 1014.6 |
| 20260505185355 | 7 | 26 | 9.7 | 20.9 | 0.00 | 0.00 | 0.00 | 77 | 1014.6 |
| 20260505183855 | 7 | 34 | 9.7 | 19.3 | 0.00 | 0.00 | 0.00 | 76 | 1014.5 |
| 20260505183355 | 7 | 15 | 9.7 | 19.3 | 0.00 | 0.00 | 0.00 | 76 | 1014.5 |
| 20260505182855 | 7 | 34 | 8.0 | 24.1 | 0.00 | 0.00 | 0.00 | 75 | 1014.4 |
| 20260505181354 | 8 | 20 | 8.0 | 20.9 | 0.00 | 0.00 | 0.00 | 77 | 1014.4 |
| 20260505180856 | 8 | 17 | 8.0 | 14.5 | 0.00 | 0.00 | 0.00 | 77 | 1014.3 |
| 20260505180355 | 8 | 21 | 6.4 | 12.9 | 0.00 | 0.00 | 0.00 | 77 | 1014.3 |
| 20260505175855 | 8 | 353 | 8.0 | 19.3 | 0.00 | 0.00 | 0.00 | 77 | 1014.3 |
| 20260505175355 | 8 | 17 | 8.0 | 19.3 | 0.00 | 0.00 | 0.00 | 77 | 1014.2 |
| 20260505174354 | 8 | 10 | 6.4 | 22.5 | 0.00 | 0.00 | 0.00 | 77 | 1014.2 |
| 20260505173855 | 8 | 358 | 8.0 | 19.3 | 0.00 | 0.00 | 0.00 | 77 | 1014.3 |
| 20260505173355 | 8 | 8 | 9.7 | 19.3 | 0.00 | 0.00 | 0.00 | 76 | 1014.2 |
| 20260505172855 | 8 | 0 | 8.0 | 16.1 | 0.00 | 0.00 | 0.00 | 76 | 1014.2 |
| 20260505172355 | 8 | 5 | 4.8 | 16.1 | 0.00 | 0.00 | 0.00 | 76 | 1014.3 |
| 20260505171855 | 8 | 26 | 4.8 | 16.1 | 0.00 | 0.00 | 0.00 | 76 | 1014.3 |
| 20260505171354 | 9 | 4 | 4.8 | 16.1 | 0.00 | 0.00 | 0.00 | 75 | 1014.2 |
| 20260505170854 | 9 | 7 | 9.7 | 19.3 | 0.00 | 0.00 | 0.00 | 74 | 1014.3 |
| 20260505170355 | 9 | 5 | 11.3 | 22.5 | 0.00 | 0.00 | 0.00 | 74 | 1014.3 |
| 20260505165856 | 9 | 358 | 6.4 | 14.5 | 0.00 | 0.00 | 0.00 | 74 | 1014.3 |
| 20260505163854 | 10 | 38 | 4.8 | 16.1 | 0.00 | 0.00 | 0.00 | 74 | 1014.2 |
| 20260505163355 | 10 | 27 | 4.8 | 14.5 | 0.00 | 0.00 | 0.00 | 75 | 1014.2 |
| 20260505162855 | 10 | 9 | 4.8 | 11.3 | 0.00 | 0.00 | 0.00 | 74 | 1014.2 |
| 20260505162354 | 10 | 1 | 8.0 | 19.3 | 0.00 | 0.00 | 0.00 | 74 | 1014.2 |
| 20260505161354 | 10 | 18 | 8.0 | 14.5 | 0.00 | 0.00 | 0.00 | 74 | 1014.1 |
| 20260505160855 | 10 | 5 | 4.8 | 9.7 | 0.00 | 0.00 | 0.00 | 74 | 1014.1 |
| 20260505160355 | 10 | 29 | 4.8 | 12.9 | 0.00 | 0.00 | 0.00 | 74 | 1014.1 |
| 20260505152855 | 10 | 18 | 3.2 | 12.9 | 0.00 | 0.00 | 0.00 | 75 | 1014.0 |
| 20260505152355 | 10 | 19 | 6.4 | 16.1 | 0.00 | 0.00 | 0.00 | 74 | 1014.0 |
| 20260505151855 | 10 | 23 | 4.8 | 9.7 | 0.00 | 0.00 | 0.00 | 75 | 1014.0 |
| 20260505151357 | 10 | 350 | 4.8 | 12.9 | 0.00 | 0.00 | 0.00 | 75 | 1014.0 |
| 20260505150855 | 10 | 24 | 1.6 | 12.9 | 0.00 | 0.00 | 0.00 | 76 | 1013.9 |
| 20260505150355 | 10 | 26 | 3.2 | 8.0 | 0.00 | 0.00 | 0.00 | 76 | 1013.9 |
| 20260505140355 | 11 | 15 | 6.4 | 16.1 | 0.00 | 0.00 | 0.00 | 73 | 1013.6 |
| 20260505124854 | 11 | 266 | 1.6 | 4.8 | 0.00 | 0.00 | 0.00 | 63 | 1013.6 |
| 20260505124355 | 11 | 272 | 3.2 | 8.0 | 0.00 | 0.00 | 0.00 | 64 | 1013.6 |
| 20260505123854 | 11 | 302 | 3.2 | 8.0 | 0.00 | 0.00 | 0.00 | 67 | 1013.6 |
| 20260505123355 | 11 | 260 | 3.2 | 14.5 | 0.00 | 0.00 | 0.00 | 67 | 1013.6 |
| 20260505122855 | 11 | 229 | 3.2 | 8.0 | 0.00 | 0.00 | 0.00 | 65 | 1013.6 |
| 20260505122355 | 11 | 249 | 3.2 | 4.8 | 0.00 | 0.00 | 0.00 | 65 | 1013.6 |
| 20260505121355 | 11 | 267 | 0.0 | 4.8 | 0.00 | 0.00 | 0.00 | 66 | 1013.7 |
| 20260505120855 | 11 | 236 | 1.6 | 4.8 | 0.00 | 0.00 | 0.00 | 65 | 1013.7 |
| 20260505120355 | 11 | 263 | 3.2 | 4.8 | 0.00 | 0.00 | 0.00 | 65 | 1013.7 |
| 20260505115855 | 11 | 260 | 4.8 | 9.7 | 0.00 | 0.00 | 0.00 | 66 | 1013.7 |
| 20260505115355 | 11 | 258 | 3.2 | 9.7 | 0.00 | 0.00 | 0.00 | 67 | 1013.7 |
| 20260505114854 | 11 | 262 | 3.2 | 8.0 | 0.00 | 0.00 | 0.00 | 66 | 1013.7 |
| 20260505114355 | 11 | 228 | 4.8 | 9.7 | 0.00 | 0.00 | 0.00 | 67 | 1013.7 |
| 20260505113855 | 11 | 245 | 4.8 | 11.3 | 0.00 | 0.00 | 0.00 | 68 | 1013.7 |
| 20260505113354 | 11 | 236 | 6.4 | 11.3 | 0.00 | 0.00 | 0.00 | 68 | 1013.8 |
| 20260505112355 | 10 | 263 | 1.6 | 8.0 | 0.00 | 0.00 | 0.00 | 71 | 1013.9 |
| 20260505111855 | 10 | 277 | 3.2 | 9.7 | 0.00 | 0.00 | 0.00 | 70 | 1013.9 |
| 20260505110855 | 10 | 277 | 3.2 | 4.8 | 0.00 | 0.00 | 0.00 | 70 | 1013.8 |
| 20260505110354 | 10 | 275 | 1.6 | 4.8 | 0.00 | 0.00 | 0.00 | 73 | 1013.9 |
| 20260505101355 | 10 | 286 | 1.6 | 4.8 | 0.00 | 0.00 | 0.00 | 74 | 1014.0 |
| 20260505100356 | 10 | 297 | 1.6 | 4.8 | 0.00 | 0.00 | 0.00 | 74 | 1014.0 |
| 20260505095855 | 10 | 278 | 1.6 | 4.8 | 0.00 | 0.00 | 0.00 | 75 | 1014.0 |
| 20260505095354 | 10 | 342 | 1.6 | 4.8 | 0.00 | 0.00 | 0.00 | 74 | 1014.0 |
| 20260505094855 | 10 | 298 | 1.6 | 4.8 | 0.00 | 0.00 | 0.00 | 74 | 1014.0 |
| 20260505093855 | 10 | 278 | 3.2 | 9.7 | 0.00 | 0.00 | 0.00 | 74 | 1014.0 |
| 20260505093354 | 10 | 317 | 1.6 | 3.2 | 0.00 | 0.00 | 0.00 | 73 | 1014.0 |
| 20260505092354 | 10 | 304 | 3.2 | 4.8 | 0.00 | 0.00 | 0.00 | 72 | 1014.1 |
| 20260505085855 | 10 | 239 | 3.2 | 9.7 | 0.00 | 0.00 | 0.00 | 73 | 1014.0 |
| 20260505085354 | 10 | 256 | 4.8 | 9.7 | 0.00 | 0.00 | 0.00 | 73 | 1014.0 |
| 20260505084854 | 10 | 270 | 4.8 | 11.3 | 0.00 | 0.00 | 0.00 | 74 | 1014.0 |
| 20260505084354 | 10 | 254 | 3.2 | 9.7 | 0.00 | 0.00 | 0.00 | 76 | 1014.0 |
| 20260505083855 | 10 | 267 | 3.2 | 4.8 | 0.00 | 0.00 | 0.00 | 76 | 1014.0 |
| 20260505083355 | 9 | 284 | 3.2 | 4.8 | 0.00 | 0.00 | 0.00 | 77 | 1014.0 |
| 20260505082854 | 9 | 251 | 4.8 | 11.3 | 0.00 | 0.00 | 0.00 | 78 | 1014.0 |
| 20260505082354 | 8 | 260 | 1.6 | 8.0 | 0.00 | 0.00 | 0.00 | 79 | 1014.0 |
| 20260505081855 | 8 | 264 | 3.2 | 4.8 | 0.00 | 0.00 | 0.00 | 80 | 1014.1 |
| 20260505080854 | 8 | 254 | 4.8 | 8.0 | 0.00 | 0.00 | 0.00 | 79 | 1014.0 |
| 20260505080354 | 8 | 284 | 4.8 | 9.7 | 0.00 | 0.00 | 0.00 | 79 | 1014.0 |
| 20260505075854 | 8 | 256 | 3.2 | 11.3 | 0.00 | 0.00 | 0.00 | 80 | 1014.0 |
| 20260505075354 | 8 | 247 | 3.2 | 8.0 | 0.00 | 0.00 | 0.00 | 80 | 1014.1 |
| 20260505074855 | 8 | 252 | 3.2 | 4.8 | 0.00 | 0.00 | 0.00 | 79 | 1014.1 |
| 20260505074354 | 8 | 252 | 3.2 | 9.7 | 0.00 | 0.00 | 0.00 | 78 | 1014.0 |
| 20260505073854 | 8 | 261 | 4.8 | 4.8 | 0.00 | 0.00 | 0.00 | 80 | 1014.0 |
| 20260505073354 | 8 | 277 | 3.2 | 4.8 | 0.00 | 0.00 | 0.00 | 80 | 1014.0 |
| 20260505072854 | 7 | 262 | 1.6 | 4.8 | 0.00 | 0.00 | 0.00 | 81 | 1014.0 |
| 20260505071854 | 7 | 277 | 3.2 | 4.8 | 0.00 | 0.00 | 0.00 | 83 | 1014.0 |
| 20260505071354 | 7 | 288 | 3.2 | 8.0 | 0.00 | 0.00 | 0.00 | 85 | 1014.1 |
| 20260505070855 | 7 | 306 | 1.6 | 3.2 | 0.00 | 0.00 | 0.00 | 85 | 1014.1 |
| 20260505065854 | 6 | 306 | 1.6 | 4.8 | 0.00 | 0.00 | 0.00 | 87 | 1014.2 |
| 20260505065354 | 6 | 306 | 1.6 | 3.2 | 0.00 | 0.00 | 0.00 | 87 | 1014.3 |
| 20260505064354 | 6 | 303 | 1.6 | 3.2 | 0.00 | 0.00 | 0.00 | 87 | 1014.4 |
| 20260505063854 | 6 | 303 | 1.6 | 4.8 | 0.00 | 0.00 | 0.00 | 88 | 1014.3 |
| 20260505063354 | 6 | 303 | 0.0 | 1.6 | 0.00 | 0.00 | 0.00 | 88 | 1014.3 |
| 20260505062854 | 5 | 303 | 1.6 | 3.2 | 0.00 | 0.00 | 0.00 | 88 | 1014.3 |
| 20260505062354 | 5 | 303 | 0.0 | 4.8 | 0.00 | 0.00 | 0.00 | 88 | 1014.3 |
| 20260505061855 | 5 | 299 | 1.6 | 3.2 | 0.00 | 0.00 | 0.00 | 89 | 1014.3 |
| 20260505061354 | 5 | 248 | 1.6 | 4.8 | 0.00 | 0.00 | 0.00 | 89 | 1014.2 |
| 20260505055354 | 5 | 322 | 1.6 | 3.2 | 0.00 | 0.00 | 0.00 | 89 | 1014.1 |
| 20260505054854 | 5 | 322 | 1.6 | 1.6 | 0.00 | 0.00 | 0.00 | 89 | 1014.1 |
| 20260505053854 | 4 | 322 | 1.6 | 1.6 | 0.00 | 0.00 | 0.00 | 90 | 1014.1 |
| 20260505053354 | 4 | 322 | 1.6 | 1.6 | 0.00 | 0.00 | 0.00 | 90 | 1014.0 |
| 20260505052854 | 4 | 322 | 1.6 | 3.2 | 0.00 | 0.00 | 0.00 | 90 | 1014.0 |
| 20260505052354 | 4 | 322 | 1.6 | 1.6 | 0.00 | 0.00 | 0.00 | 90 | 1013.9 |
| 20260505051855 | 4 | 322 | 1.6 | 1.6 | 0.00 | 0.00 | 0.00 | 90 | 1013.9 |
| 20260505051354 | 4 | 322 | 1.6 | 3.2 | 0.00 | 0.00 | 0.00 | 90 | 1013.9 |
| 20260505050354 | 4 | 322 | 1.6 | 3.2 | 0.00 | 0.00 | 0.00 | 90 | 1013.9 |
| 20260505041354 | 4 | 325 | 1.6 | 3.2 | 0.00 | 0.00 | 0.00 | 91 | 1013.5 |
| 20260505040855 | 4 | 333 | 0.0 | 3.2 | 0.00 | 0.00 | 0.00 | 90 | 1013.6 |
| 20260505040354 | 4 | 333 | 0.0 | 3.2 | 0.00 | 0.00 | 0.00 | 90 | 1013.6 |
| 20260505035855 | 4 | 333 | 0.0 | 3.2 | 0.00 | 0.00 | 0.00 | 89 | 1013.5 |
| 20260505035353 | 4 | 333 | 0.0 | 1.6 | 0.00 | 0.00 | 0.00 | 90 | 1013.5 |
| 20260505034854 | 5 | 333 | 1.6 | 1.6 | 0.00 | 0.00 | 0.00 | 90 | 1013.5 |
| 20260505034355 | 5 | 333 | 0.0 | 3.2 | 0.00 | 0.00 | 0.00 | 90 | 1013.6 |
| 20260505033854 | 5 | 315 | 1.6 | 3.2 | 0.00 | 0.00 | 0.00 | 90 | 1013.5 |
| 20260505033354 | 5 | 305 | 0.0 | 3.2 | 0.00 | 0.00 | 0.00 | 90 | 1013.5 |
| 20260505032854 | 5 | 305 | 1.6 | 3.2 | 0.00 | 0.00 | 0.00 | 90 | 1013.4 |
| 20260505032355 | 5 | 314 | 1.6 | 4.8 | 0.00 | 0.00 | 0.00 | 90 | 1013.5 |
| 20260505031854 | 5 | 319 | 1.6 | 3.2 | 0.00 | 0.00 | 0.00 | 90 | 1013.5 |
| 20260505031354 | 5 | 323 | 1.6 | 4.8 | 0.00 | 0.00 | 0.00 | 89 | 1013.6 |
| 20260505030354 | 5 | 293 | 1.6 | 1.6 | 0.00 | 0.00 | 0.00 | 89 | 1013.6 |
| 20260505025854 | 5 | 302 | 1.6 | 4.8 | 0.00 | 0.00 | 0.00 | 89 | 1013.6 |
| 20260505025354 | 5 | 304 | 1.6 | 3.2 | 0.00 | 0.00 | 0.00 | 89 | 1013.7 |
| 20260505024854 | 5 | 296 | 3.2 | 4.8 | 0.00 | 0.00 | 0.00 | 89 | 1013.7 |
| 20260505024354 | 5 | 288 | 3.2 | 4.8 | 0.00 | 0.00 | 0.00 | 89 | 1013.7 |
| 20260505023854 | 5 | 320 | 1.6 | 4.8 | 0.00 | 0.00 | 0.00 | 88 | 1013.6 |
| 20260505022854 | 5 | 259 | 1.6 | 3.2 | 0.00 | 0.00 | 0.00 | 88 | 1013.6 |
| 20260505022354 | 5 | 259 | 1.6 | 4.8 | 0.00 | 0.00 | 0.00 | 87 | 1013.7 |
| 20260505021854 | 5 | 248 | 0.0 | 1.6 | 0.00 | 0.00 | 0.00 | 87 | 1013.6 |
| 20260505021354 | 5 | 269 | 1.6 | 4.8 | 0.00 | 0.00 | 0.00 | 88 | 1013.6 |
| 20260505015855 | 6 | 296 | 1.6 | 4.8 | 0.00 | 0.00 | 0.00 | 87 | 1013.7 |
| 20260505014354 | 6 | 252 | 1.6 | 4.8 | 0.00 | 0.00 | 0.00 | 86 | 1013.8 |
| 20260505013856 | 6 | 239 | 1.6 | 3.2 | 0.00 | 0.00 | 0.00 | 86 | 1013.8 |
| 20260505013354 | 6 | 287 | 1.6 | 4.8 | 0.00 | 0.00 | 0.00 | 86 | 1013.8 |
| 20260505012855 | 6 | 272 | 1.6 | 3.2 | 0.00 | 0.00 | 0.00 | 86 | 1013.9 |
| 20260505012353 | 6 | 301 | 3.2 | 8.0 | 0.00 | 0.00 | 0.00 | 86 | 1013.9 |
| 20260505011854 | 6 | 308 | 1.6 | 3.2 | 0.00 | 0.00 | 0.00 | 85 | 1014.0 |
| 20260505011353 | 6 | 296 | 1.6 | 4.8 | 0.00 | 0.00 | 0.00 | 85 | 1014.0 |
| 20260505010854 | 6 | 244 | 3.2 | 4.8 | 0.00 | 0.00 | 0.00 | 85 | 1014.0 |
| 20260505010354 | 6 | 245 | 1.6 | 4.8 | 0.00 | 0.00 | 0.00 | 84 | 1014.0 |
| 20260505005854 | 6 | 274 | 0.0 | 3.2 | 0.00 | 0.00 | 0.00 | 84 | 1013.9 |
| 20260505005354 | 6 | 301 | 0.0 | 3.2 | 0.00 | 0.00 | 0.00 | 84 | 1013.9 |
| 20260505004854 | 6 | 301 | 1.6 | 4.8 | 0.00 | 0.00 | 0.00 | 84 | 1014.0 |
| 20260505003354 | 6 | 306 | 1.6 | 3.2 | 0.00 | 0.00 | 0.00 | 83 | 1014.1 |
| 20260505002854 | 6 | 306 | 1.6 | 3.2 | 0.00 | 0.00 | 0.00 | 83 | 1014.1 |
| 20260505002354 | 6 | 311 | 3.2 | 12.9 | 0.00 | 0.00 | 0.00 | 83 | 1014.1 |
| 20260505001854 | 6 | 300 | 3.2 | 8.0 | 0.00 | 0.00 | 0.00 | 83 | 1014.2 |
| 20260505001353 | 7 | 293 | 1.6 | 4.8 | 0.00 | 0.00 | 0.00 | 83 | 1014.2 |
| 20260505000854 | 7 | 321 | 1.6 | 4.8 | 0.00 | 0.00 | 0.00 | 83 | 1014.2 |
| 20260504235354 | 7 | 304 | 3.2 | 4.8 | 0.00 | 0.00 | 0.00 | 84 | 1014.2 |
| 20260504234854 | 7 | 325 | 1.6 | 4.8 | 0.00 | 0.00 | 0.00 | 84 | 1014.3 |
| 20260504234354 | 6 | 300 | 1.6 | 4.8 | 0.00 | 0.00 | 0.00 | 83 | 1014.3 |
| 20260504233354 | 7 | 309 | 1.6 | 3.2 | 0.00 | 0.00 | 0.00 | 83 | 1014.3 |
| 20260504232854 | 7 | 309 | 1.6 | 4.8 | 0.00 | 0.00 | 0.00 | 83 | 1014.3 |
| 20260504232353 | 7 | 308 | 1.6 | 4.8 | 0.00 | 0.00 | 0.00 | 83 | 1014.2 |
| 20260504231854 | 7 | 302 | 1.6 | 4.8 | 0.00 | 0.00 | 0.00 | 84 | 1014.2 |
| 20260504231354 | 7 | 292 | 0.0 | 3.2 | 0.00 | 0.00 | 0.00 | 84 | 1014.3 |
| 20260504230937 | 7 | 303 | 1.6 | 4.8 | 0.00 | 0.00 | 0.00 | 84 | 1014.3 |
| 20260504225354 | 7 | 304 | 1.6 | 4.8 | 0.00 | 0.00 | 0.00 | 85 | 1014.3 |
| 20260504224854 | 7 | 238 | 1.6 | 4.8 | 0.00 | 0.00 | 0.00 | 84 | 1014.3 |
| 20260504224354 | 7 | 252 | 1.6 | 4.8 | 0.00 | 0.00 | 0.00 | 85 | 1014.3 |
| 20260504223354 | 7 | 252 | 3.2 | 4.8 | 0.00 | 0.00 | 0.00 | 85 | 1014.4 |
| 20260504222354 | 7 | 277 | 1.6 | 4.8 | 0.00 | 0.00 | 0.00 | 85 | 1014.6 |
| 20260504221854 | 7 | 248 | 1.6 | 4.8 | 0.00 | 0.00 | 0.00 | 84 | 1014.6 |
| 20260504221354 | 7 | 248 | 1.6 | 4.8 | 0.00 | 0.00 | 0.00 | 84 | 1014.6 |
| 20260504220854 | 7 | 231 | 1.6 | 4.8 | 0.00 | 0.00 | 0.00 | 84 | 1014.6 |
| 20260504215853 | 8 | 305 | 1.6 | 4.8 | 0.00 | 0.00 | 0.00 | 84 | 1014.6 |
| 20260504215354 | 8 | 314 | 1.6 | 4.8 | 0.00 | 0.00 | 0.00 | 83 | 1014.5 |
| 20260504214853 | 8 | 304 | 1.6 | 4.8 | 0.00 | 0.00 | 0.00 | 83 | 1014.5 |
| 20260504214354 | 8 | 273 | 1.6 | 4.8 | 0.00 | 0.00 | 0.00 | 83 | 1014.5 |
| 20260504213353 | 8 | 272 | 1.6 | 4.8 | 0.00 | 0.00 | 0.00 | 83 | 1014.5 |
| 20260504212854 | 8 | 270 | 1.6 | 4.8 | 0.00 | 0.00 | 0.00 | 83 | 1014.6 |
| 20260504212354 | 8 | 270 | 1.6 | 4.8 | 0.00 | 0.00 | 0.00 | 83 | 1014.6 |
| 20260504211854 | 8 | 270 | 1.6 | 4.8 | 0.00 | 0.00 | 0.00 | 83 | 1014.7 |
| 20260504211354 | 8 | 270 | 1.6 | 3.2 | 0.00 | 0.00 | 0.00 | 83 | 1014.7 |
| 20260504210853 | 9 | 270 | 1.6 | 4.8 | 0.00 | 0.00 | 0.00 | 83 | 1014.7 |
| 20260504210354 | 9 | 275 | 1.6 | 3.2 | 0.00 | 0.00 | 0.00 | 83 | 1014.7 |
| 20260504205853 | 9 | 275 | 1.6 | 3.2 | 0.00 | 0.00 | 0.00 | 83 | 1014.7 |
| 20260504205354 | 9 | 275 | 1.6 | 3.2 | 0.00 | 0.00 | 0.00 | 83 | 1014.7 |
| 20260504204854 | 9 | 275 | 1.6 | 4.8 | 0.00 | 0.00 | 0.00 | 83 | 1014.7 |
| 20260504204354 | 10 | 275 | 0.0 | 4.8 | 0.00 | 0.00 | 0.00 | 82 | 1014.7 |
| 20260504203853 | 10 | 275 | 0.0 | 3.2 | 0.00 | 0.00 | 0.00 | 82 | 1014.7 |
| 20260504203355 | 10 | 275 | 0.0 | 3.2 | 0.00 | 0.00 | 0.00 | 82 | 1014.6 |
| 20260504202353 | 10 | 275 | 1.6 | 4.8 | 0.00 | 0.00 | 0.00 | 82 | 1014.6 |
| 20260504201854 | 10 | 245 | 1.6 | 4.8 | 0.00 | 0.00 | 0.00 | 82 | 1014.6 |
| 20260504201354 | 10 | 286 | 1.6 | 4.8 | 0.00 | 0.00 | 0.00 | 82 | 1014.6 |
| 20260504200854 | 10 | 270 | 3.2 | 4.8 | 0.00 | 0.00 | 0.00 | 82 | 1014.6 |
| 20260504200354 | 10 | 266 | 1.6 | 4.8 | 0.00 | 0.00 | 0.00 | 82 | 1014.6 |